Year,Month,Day,Hour,Minute,Value (Times are PST for temperature in C)
2012,04,23,00,07,11.80
2012,04,23,00,08,11.80
2012,04,23,00,09,11.80
2012,04,23,00,10,11.80
2012,04,23,00,12,11.70
2012,04,23,00,13,11.70
2012,04,23,00,14,11.70
2012,04,23,00,15,11.70
2012,04,23,00,17,11.70
2012,04,23,00,18,11.70
2012,04,23,00,19,11.70
2012,04,23,00,20,11.70
2012,04,23,00,21,11.70
2012,04,23,00,23,11.60
2012,04,23,00,24,11.60
2012,04,23,00,25,11.60
2012,04,23,00,27,11.60
2012,04,23,00,28,11.60
2012,04,23,00,29,11.60
2012,04,23,00,30,11.60
2012,04,23,00,32,11.60
2012,04,23,00,33,11.60
2012,04,23,00,34,11.60
2012,04,23,00,35,11.60
2012,04,23,00,37,11.60
2012,04,23,00,38,11.60
2012,04,23,00,39,11.60
2012,04,23,00,40,11.60
2012,04,23,00,41,11.60
2012,04,23,00,42,11.60
2012,04,23,00,43,11.60
2012,04,23,00,44,11.50
2012,04,23,00,46,11.50
2012,04,23,00,47,11.50
2012,04,23,00,48,11.50
2012,04,23,00,49,11.50
2012,04,23,00,51,11.50
2012,04,23,00,52,11.50
2012,04,23,00,53,11.50
2012,04,23,00,54,11.40
2012,04,23,00,55,11.40
2012,04,23,00,57,11.40
2012,04,23,00,58,11.40
2012,04,23,00,59,11.30
2012,04,23,01,03,11.20
2012,04,23,01,06,11.10
2012,04,23,01,07,11.10
2012,04,23,01,10,11.00
2012,04,23,01,11,11.00
2012,04,23,01,13,10.90
2012,04,23,01,15,10.90
2012,04,23,01,16,10.90
2012,04,23,01,18,10.90
2012,04,23,01,19,10.80
2012,04,23,01,21,10.80
2012,04,23,01,22,10.80
2012,04,23,01,23,10.80
2012,04,23,01,26,10.80
2012,04,23,01,28,10.70
2012,04,23,01,30,10.70
2012,04,23,01,31,10.70
2012,04,23,01,32,10.70
2012,04,23,01,33,10.70
2012,04,23,01,34,10.70
2012,04,23,01,35,10.70
2012,04,23,01,36,10.70
2012,04,23,01,37,10.70
2012,04,23,01,38,10.60
2012,04,23,01,39,10.60
2012,04,23,01,40,10.60
2012,04,23,01,42,10.60
2012,04,23,01,43,10.70
2012,04,23,01,44,10.70
2012,04,23,01,46,10.70
2012,04,23,01,47,10.70
2012,04,23,01,48,10.70
2012,04,23,01,49,10.70
2012,04,23,01,51,10.70
2012,04,23,01,52,10.80
2012,04,23,01,53,10.80
2012,04,23,01,54,10.80
2012,04,23,01,55,10.80
2012,04,23,01,56,10.90
2012,04,23,01,57,10.90
2012,04,23,01,58,10.90
2012,04,23,01,59,10.90
2012,04,23,02,00,10.90
2012,04,23,02,01,11.00
2012,04,23,02,02,11.00
2012,04,23,02,03,11.10
2012,04,23,02,05,11.10
2012,04,23,02,06,11.10
2012,04,23,02,07,11.00
2012,04,23,02,08,11.00
2012,04,23,02,10,10.90
2012,04,23,02,11,10.80
2012,04,23,02,12,10.70
2012,04,23,02,13,10.60
2012,04,23,02,15,10.60
2012,04,23,02,16,10.40
2012,04,23,02,17,10.40
2012,04,23,02,18,10.40
2012,04,23,02,19,10.40
2012,04,23,02,21,10.40
2012,04,23,02,22,10.40
2012,04,23,02,23,10.30
2012,04,23,02,24,10.30
2012,04,23,02,26,10.30
2012,04,23,02,27,10.30
2012,04,23,02,28,10.30
2012,04,23,02,29,10.20
2012,04,23,02,30,10.20
2012,04,23,02,31,10.20
2012,04,23,02,32,10.20
2012,04,23,02,33,10.20
2012,04,23,02,34,10.20
2012,04,23,02,36,10.20
2012,04,23,02,37,10.30
2012,04,23,02,38,10.30
2012,04,23,02,39,10.30
2012,04,23,02,40,10.40
2012,04,23,02,42,10.40
2012,04,23,02,43,10.50
2012,04,23,02,44,10.60
2012,04,23,02,45,10.60
2012,04,23,02,47,10.60
2012,04,23,02,48,10.60
2012,04,23,02,49,10.60
2012,04,23,02,50,10.60
2012,04,23,02,51,10.60
2012,04,23,02,53,10.50
2012,04,23,02,54,10.50
2012,04,23,02,55,10.40
2012,04,23,02,56,10.40
2012,04,23,02,58,10.40
2012,04,23,02,59,10.50
2012,04,23,03,00,10.50
2012,04,23,03,01,10.50
2012,04,23,03,03,10.50
2012,04,23,03,04,10.50
2012,04,23,03,05,10.40
2012,04,23,03,07,10.40
2012,04,23,03,08,10.40
2012,04,23,03,09,10.50
2012,04,23,03,10,10.50
2012,04,23,03,11,10.60
2012,04,23,03,13,10.60
2012,04,23,03,14,10.70
2012,04,23,03,15,10.70
2012,04,23,03,16,10.70
2012,04,23,03,18,10.70
2012,04,23,03,19,10.80
2012,04,23,03,20,10.80
2012,04,23,03,21,10.80
2012,04,23,03,23,10.90
2012,04,23,03,24,10.90
2012,04,23,03,25,10.90
2012,04,23,03,26,10.90
2012,04,23,03,28,10.90
2012,04,23,03,29,10.90
2012,04,23,03,30,10.90
2012,04,23,03,31,10.90
2012,04,23,03,33,11.00
2012,04,23,03,34,11.00
2012,04,23,03,35,11.00
2012,04,23,03,36,11.00
2012,04,23,03,38,11.10
2012,04,23,03,39,11.10
2012,04,23,03,40,11.10
2012,04,23,03,41,11.10
2012,04,23,03,43,11.10
2012,04,23,03,44,11.00
2012,04,23,03,45,11.00
2012,04,23,03,46,11.00
2012,04,23,03,48,11.00
2012,04,23,03,49,11.10
2012,04,23,03,50,11.10
2012,04,23,03,51,11.10
2012,04,23,03,53,11.10
2012,04,23,03,54,11.10
2012,04,23,03,55,11.10
2012,04,23,03,56,11.10
2012,04,23,03,58,11.10
2012,04,23,03,59,11.10
2012,04,23,04,00,11.10
2012,04,23,04,01,11.10
2012,04,23,04,03,11.10
2012,04,23,04,04,11.10
2012,04,23,04,05,11.10
2012,04,23,04,07,11.10
2012,04,23,04,08,10.90
2012,04,23,04,09,10.90
2012,04,23,04,10,10.80
2012,04,23,04,12,10.80
2012,04,23,04,13,10.80
2012,04,23,04,14,10.80
2012,04,23,04,15,10.70
2012,04,23,04,16,10.70
2012,04,23,04,17,10.70
2012,04,23,04,18,10.70
2012,04,23,04,19,10.70
2012,04,23,04,21,10.70
2012,04,23,04,22,10.70
2012,04,23,04,23,10.60
2012,04,23,04,24,10.60
2012,04,23,04,25,10.60
2012,04,23,04,27,10.50
2012,04,23,04,28,10.40
2012,04,23,04,29,10.30
2012,04,23,04,30,10.30
2012,04,23,04,31,10.20
2012,04,23,04,32,10.20
2012,04,23,04,33,10.20
2012,04,23,04,34,10.10
2012,04,23,04,35,10.10
2012,04,23,04,36,10.10
2012,04,23,04,37,10.00
2012,04,23,04,38,9.90
2012,04,23,04,39,9.90
2012,04,23,04,40,9.80
2012,04,23,04,41,9.80
2012,04,23,04,42,9.80
2012,04,23,04,43,9.80
2012,04,23,04,44,9.80
2012,04,23,04,45,9.70
2012,04,23,04,46,9.70
2012,04,23,04,47,9.70
2012,04,23,04,48,9.70
2012,04,23,04,49,9.70
2012,04,23,04,50,9.70
2012,04,23,04,51,9.60
2012,04,23,04,52,9.60
2012,04,23,04,53,9.60
2012,04,23,04,54,9.50
2012,04,23,04,55,9.40
2012,04,23,04,56,9.30
2012,04,23,04,57,9.30
2012,04,23,04,58,9.30
2012,04,23,04,59,9.20
2012,04,23,05,00,9.20
2012,04,23,05,01,9.20
2012,04,23,05,02,9.10
2012,04,23,05,03,9.10
2012,04,23,05,04,9.10
2012,04,23,05,05,9.10
2012,04,23,05,06,9.10
2012,04,23,05,07,9.10
2012,04,23,05,08,9.10
2012,04,23,05,09,9.10
2012,04,23,05,10,9.10
2012,04,23,05,11,9.10
2012,04,23,05,12,9.10
2012,04,23,05,13,9.20
2012,04,23,05,14,9.20
2012,04,23,05,15,9.20
2012,04,23,05,16,9.20
2012,04,23,05,17,9.20
2012,04,23,05,18,9.20
2012,04,23,05,19,9.20
2012,04,23,05,20,9.20
2012,04,23,05,21,9.20
2012,04,23,05,22,9.20
2012,04,23,05,23,9.20
2012,04,23,05,24,9.20
2012,04,23,05,25,9.20
2012,04,23,05,26,9.20
2012,04,23,05,27,9.20
2012,04,23,05,28,9.20
2012,04,23,05,29,9.20
2012,04,23,05,30,9.20
2012,04,23,05,32,9.20
2012,04,23,05,33,9.20
2012,04,23,05,34,9.20
2012,04,23,05,35,9.10
2012,04,23,05,36,9.10
2012,04,23,05,37,9.10
2012,04,23,05,38,9.10
2012,04,23,05,39,9.10
2012,04,23,05,40,9.10
2012,04,23,05,42,9.10
2012,04,23,05,43,9.10
2012,04,23,05,44,9.00
2012,04,23,05,45,9.00
2012,04,23,05,46,9.00
2012,04,23,05,47,8.90
2012,04,23,05,48,8.90
2012,04,23,05,49,8.90
2012,04,23,05,50,8.90
2012,04,23,05,52,8.90
2012,04,23,05,53,8.90
2012,04,23,05,54,8.90
2012,04,23,05,56,8.80
2012,04,23,05,57,8.80
2012,04,23,05,58,8.80
2012,04,23,05,59,8.90
2012,04,23,06,01,8.90
2012,04,23,06,02,8.90
2012,04,23,06,03,8.90
2012,04,23,06,04,8.90
2012,04,23,06,06,8.90
2012,04,23,06,07,8.90
2012,04,23,06,08,8.90
2012,04,23,06,10,8.90
2012,04,23,06,11,8.90
2012,04,23,06,12,8.90
2012,04,23,06,13,8.90
2012,04,23,06,14,8.80
2012,04,23,06,15,8.80
2012,04,23,06,17,8.80
2012,04,23,06,18,8.80
2012,04,23,06,19,8.90
2012,04,23,06,21,8.90
2012,04,23,06,22,9.00
2012,04,23,06,23,9.10
2012,04,23,06,24,9.10
2012,04,23,06,26,9.10
2012,04,23,06,27,9.10
2012,04,23,06,28,9.10
2012,04,23,06,29,9.10
2012,04,23,06,31,9.10
2012,04,23,06,32,9.10
2012,04,23,06,33,9.10
2012,04,23,06,34,9.00
2012,04,23,06,36,9.00
2012,04,23,06,37,8.90
2012,04,23,06,38,8.90
2012,04,23,06,40,8.90
2012,04,23,06,41,8.90
2012,04,23,06,42,8.90
2012,04,23,06,43,8.80
2012,04,23,06,45,8.80
2012,04,23,06,46,8.80
2012,04,23,06,47,8.80
2012,04,23,06,48,8.80
2012,04,23,06,50,8.80
2012,04,23,06,51,8.80
2012,04,23,06,52,8.80
2012,04,23,06,53,8.80
2012,04,23,06,55,8.80
2012,04,23,06,56,8.80
2012,04,23,06,57,8.80
2012,04,23,06,58,8.80
2012,04,23,06,59,8.80
2012,04,23,07,00,8.80
2012,04,23,07,01,8.80
2012,04,23,07,02,8.90
2012,04,23,07,03,8.90
2012,04,23,07,05,8.90
2012,04,23,07,06,8.90
2012,04,23,07,07,8.90
2012,04,23,07,08,8.90
2012,04,23,07,09,9.00
2012,04,23,07,11,9.00
2012,04,23,07,12,9.00
2012,04,23,07,13,9.10
2012,04,23,07,15,9.10
2012,04,23,07,16,9.10
2012,04,23,07,17,9.10
2012,04,23,07,18,9.20
2012,04,23,07,20,9.20
2012,04,23,07,21,9.20
2012,04,23,07,22,9.20
2012,04,23,07,23,9.20
2012,04,23,07,24,9.20
2012,04,23,07,25,9.30
2012,04,23,07,26,9.30
2012,04,23,07,27,9.30
2012,04,23,07,28,9.30
2012,04,23,07,29,9.30
2012,04,23,07,31,9.30
2012,04,23,07,32,9.40
2012,04,23,07,33,9.40
2012,04,23,07,34,9.40
2012,04,23,07,35,9.40
2012,04,23,07,36,9.50
2012,04,23,07,37,9.50
2012,04,23,07,38,9.60
2012,04,23,07,40,9.60
2012,04,23,07,41,9.70
2012,04,23,07,42,9.80
2012,04,23,07,43,9.80
2012,04,23,07,45,9.90
2012,04,23,07,46,10.00
2012,04,23,07,47,10.10
2012,04,23,07,49,10.10
2012,04,23,07,50,10.20
2012,04,23,07,52,10.20
2012,04,23,07,53,10.30
2012,04,23,07,54,10.30
2012,04,23,07,56,10.40
2012,04,23,07,57,10.40
2012,04,23,07,58,10.50
2012,04,23,07,59,10.60
2012,04,23,08,00,10.60
2012,04,23,08,01,10.70
2012,04,23,08,02,10.70
2012,04,23,08,03,10.70
2012,04,23,08,04,10.80
2012,04,23,08,05,10.80
2012,04,23,08,06,10.90
2012,04,23,08,07,10.90
2012,04,23,08,08,10.90
2012,04,23,08,09,11.00
2012,04,23,08,11,11.10
2012,04,23,08,12,11.10
2012,04,23,08,13,11.10
2012,04,23,08,14,11.10
2012,04,23,08,15,11.10
2012,04,23,08,17,11.10
2012,04,23,08,18,11.10
2012,04,23,08,19,11.10
2012,04,23,08,20,11.20
2012,04,23,08,22,11.20
2012,04,23,08,23,11.30
2012,04,23,08,24,11.30
2012,04,23,08,26,11.40
2012,04,23,08,27,11.50
2012,04,23,08,28,11.60
2012,04,23,08,29,11.80
2012,04,23,08,30,11.80
2012,04,23,08,32,11.90
2012,04,23,08,33,12.10
2012,04,23,08,34,12.20
2012,04,23,08,35,12.20
2012,04,23,08,37,12.30
2012,04,23,08,38,12.40
2012,04,23,08,39,12.40
2012,04,23,08,40,12.40
2012,04,23,08,42,12.50
2012,04,23,08,43,12.60
2012,04,23,08,44,12.70
2012,04,23,08,45,12.70
2012,04,23,08,47,12.80
2012,04,23,08,48,12.90
2012,04,23,08,49,13.00
2012,04,23,08,51,13.10
2012,04,23,08,52,13.20
2012,04,23,08,53,13.20
2012,04,23,08,54,13.20
2012,04,23,08,56,13.30
2012,04,23,08,57,13.30
2012,04,23,08,58,13.30
2012,04,23,08,59,13.30
2012,04,23,09,00,13.30
2012,04,23,09,01,13.30
2012,04,23,09,02,13.30
2012,04,23,09,03,13.40
2012,04,23,09,04,13.40
2012,04,23,09,06,13.50
2012,04,23,09,07,13.60
2012,04,23,09,08,13.60
2012,04,23,09,10,13.50
2012,04,23,09,11,13.40
2012,04,23,09,12,13.40
2012,04,23,09,13,13.40
2012,04,23,09,15,13.50
2012,04,23,09,16,13.50
2012,04,23,09,17,13.50
2012,04,23,09,18,13.50
2012,04,23,09,20,13.60
2012,04,23,09,21,13.70
2012,04,23,09,22,13.80
2012,04,23,09,23,13.90
2012,04,23,09,25,14.10
2012,04,23,09,26,14.20
2012,04,23,09,27,14.20
2012,04,23,09,28,14.30
2012,04,23,09,30,14.40
2012,04,23,09,31,14.60
2012,04,23,09,32,14.70
2012,04,23,09,34,14.80
2012,04,23,09,35,14.80
2012,04,23,09,36,14.90
2012,04,23,09,37,14.90
2012,04,23,09,38,14.80
2012,04,23,09,40,14.80
2012,04,23,09,41,14.80
2012,04,23,09,42,14.70
2012,04,23,09,43,14.70
2012,04,23,09,45,14.80
2012,04,23,09,46,14.70
2012,04,23,09,47,14.70
2012,04,23,09,48,14.70
2012,04,23,09,49,14.70
2012,04,23,09,51,14.70
2012,04,23,09,52,14.80
2012,04,23,09,53,14.80
2012,04,23,09,54,14.80
2012,04,23,09,56,14.90
2012,04,23,09,57,14.90
2012,04,23,09,58,14.90
2012,04,23,09,59,14.80
2012,04,23,10,01,14.80
2012,04,23,10,02,14.80
2012,04,23,10,03,14.80
2012,04,23,10,04,14.90
2012,04,23,10,06,15.00
2012,04,23,10,07,15.10
2012,04,23,10,08,15.20
2012,04,23,10,09,15.30
2012,04,23,10,10,15.40
2012,04,23,10,12,15.60
2012,04,23,10,13,15.70
2012,04,23,10,14,15.80
2012,04,23,10,15,15.80
2012,04,23,10,17,15.80
2012,04,23,10,18,15.90
2012,04,23,10,19,15.90
2012,04,23,10,21,16.00
2012,04,23,10,22,16.10
2012,04,23,10,23,16.20
2012,04,23,10,24,16.30
2012,04,23,10,26,16.30
2012,04,23,10,27,16.30
2012,04,23,10,28,16.30
2012,04,23,10,29,16.30
2012,04,23,10,31,16.30
2012,04,23,10,32,16.40
2012,04,23,10,33,16.30
2012,04,23,10,34,16.30
2012,04,23,10,36,16.20
2012,04,23,10,37,16.20
2012,04,23,10,38,16.20
2012,04,23,10,39,16.30
2012,04,23,10,41,16.30
2012,04,23,10,42,16.40
2012,04,23,10,43,16.40
2012,04,23,10,45,16.40
2012,04,23,10,46,16.40
2012,04,23,10,47,16.40
2012,04,23,10,48,16.40
2012,04,23,10,50,16.40
2012,04,23,10,51,16.30
2012,04,23,10,52,16.20
2012,04,23,10,53,16.10
2012,04,23,10,55,16.10
2012,04,23,10,56,16.00
2012,04,23,10,57,16.00
2012,04,23,10,58,16.00
2012,04,23,10,59,15.90
2012,04,23,11,00,15.90
2012,04,23,11,01,15.80
2012,04,23,11,02,15.70
2012,04,23,11,04,15.70
2012,04,23,11,05,15.60
2012,04,23,11,06,15.70
2012,04,23,11,07,15.70
2012,04,23,11,08,15.80
2012,04,23,11,09,15.80
2012,04,23,11,11,15.70
2012,04,23,11,12,15.60
2012,04,23,11,13,15.50
2012,04,23,11,14,15.40
2012,04,23,11,15,15.50
2012,04,23,11,17,15.60
2012,04,23,11,18,15.60
2012,04,23,11,19,15.70
2012,04,23,11,20,15.70
2012,04,23,11,22,15.70
2012,04,23,11,23,15.80
2012,04,23,11,24,15.80
2012,04,23,11,25,15.80
2012,04,23,11,26,15.90
2012,04,23,11,28,15.90
2012,04,23,11,29,16.00
2012,04,23,11,30,16.00
2012,04,23,11,31,16.00
2012,04,23,11,33,16.00
2012,04,23,11,34,15.90
2012,04,23,11,35,16.00
2012,04,23,11,36,16.00
2012,04,23,11,38,16.10
2012,04,23,11,39,16.20
2012,04,23,11,40,16.20
2012,04,23,11,41,16.20
2012,04,23,11,43,16.20
2012,04,23,11,44,16.20
2012,04,23,11,45,16.20
2012,04,23,11,47,16.20
2012,04,23,11,48,16.20
2012,04,23,11,49,16.30
2012,04,23,11,50,16.30
2012,04,23,11,52,16.30
2012,04,23,11,53,16.30
2012,04,23,11,54,16.30
2012,04,23,11,55,16.40
2012,04,23,11,56,16.40
2012,04,23,11,57,16.30
2012,04,23,11,58,16.20
2012,04,23,11,59,16.20
2012,04,23,12,00,16.20
2012,04,23,12,01,16.30
2012,04,23,12,02,16.30
2012,04,23,12,03,16.40
2012,04,23,12,04,16.50
2012,04,23,12,06,16.60
2012,04,23,12,07,16.70
2012,04,23,12,08,16.70
2012,04,23,12,09,16.80
2012,04,23,12,11,16.90
2012,04,23,12,12,16.90
2012,04,23,12,13,17.00
2012,04,23,12,14,17.00
2012,04,23,12,15,17.00
2012,04,23,12,17,16.90
2012,04,23,12,18,16.90
2012,04,23,12,19,16.90
2012,04,23,12,20,16.90
2012,04,23,12,21,17.00
2012,04,23,12,23,16.90
2012,04,23,12,24,16.90
2012,04,23,12,25,16.80
2012,04,23,12,27,16.90
2012,04,23,12,28,16.90
2012,04,23,12,29,17.10
2012,04,23,12,30,17.10
2012,04,23,12,31,17.10
2012,04,23,12,32,17.10
2012,04,23,12,33,17.10
2012,04,23,12,34,17.20
2012,04,23,12,35,17.20
2012,04,23,12,36,17.30
2012,04,23,12,37,17.30
2012,04,23,12,38,17.40
2012,04,23,12,39,17.50
2012,04,23,12,40,17.50
2012,04,23,12,41,17.40
2012,04,23,12,42,17.40
2012,04,23,12,43,17.30
2012,04,23,12,44,17.30
2012,04,23,12,45,17.30
2012,04,23,12,46,17.30
2012,04,23,12,47,17.40
2012,04,23,12,48,17.40
2012,04,23,12,49,17.40
2012,04,23,12,50,17.40
2012,04,23,12,51,17.40
2012,04,23,12,52,17.50
2012,04,23,12,53,17.40
2012,04,23,12,54,17.40
2012,04,23,12,55,17.40
2012,04,23,12,56,17.40
2012,04,23,12,57,17.40
2012,04,23,12,58,17.30
2012,04,23,12,59,17.30
2012,04,23,13,00,17.30
2012,04,23,13,01,17.40
2012,04,23,13,02,17.50
2012,04,23,13,03,17.70
2012,04,23,13,04,17.70
2012,04,23,13,05,17.90
2012,04,23,13,06,18.10
2012,04,23,13,07,18.20
2012,04,23,13,08,18.20
2012,04,23,13,09,18.30
2012,04,23,13,10,18.30
2012,04,23,13,11,18.30
2012,04,23,13,12,18.30
2012,04,23,13,13,18.20
2012,04,23,13,14,18.30
2012,04,23,13,15,18.30
2012,04,23,13,16,18.30
2012,04,23,13,17,18.40
2012,04,23,13,18,18.50
2012,04,23,13,19,18.60
2012,04,23,13,20,18.60
2012,04,23,13,21,18.60
2012,04,23,13,22,18.50
2012,04,23,13,23,18.40
2012,04,23,13,24,18.30
2012,04,23,13,25,18.30
2012,04,23,13,26,18.30
2012,04,23,13,27,18.30
2012,04,23,13,28,18.30
2012,04,23,13,29,18.20
2012,04,23,13,31,18.20
2012,04,23,13,32,18.20
2012,04,23,13,33,18.20
2012,04,23,13,34,18.20
2012,04,23,13,36,18.20
2012,04,23,13,37,18.10
2012,04,23,13,38,18.20
2012,04,23,13,39,18.20
2012,04,23,13,41,18.30
2012,04,23,13,42,18.40
2012,04,23,13,43,18.50
2012,04,23,13,44,18.60
2012,04,23,13,46,18.60
2012,04,23,13,47,18.50
2012,04,23,13,48,18.50
2012,04,23,13,50,18.60
2012,04,23,13,51,18.70
2012,04,23,13,52,18.70
2012,04,23,13,53,18.80
2012,04,23,13,55,18.80
2012,04,23,13,56,18.80
2012,04,23,13,57,18.90
2012,04,23,13,58,19.00
2012,04,23,13,59,19.10
2012,04,23,14,01,19.20
2012,04,23,14,02,19.20
2012,04,23,14,03,19.20
2012,04,23,14,05,19.10
2012,04,23,14,06,19.10
2012,04,23,14,07,18.90
2012,04,23,14,09,18.80
2012,04,23,14,10,18.80
2012,04,23,14,11,18.70
2012,04,23,14,12,18.60
2012,04,23,14,14,18.40
2012,04,23,14,15,18.30
2012,04,23,14,16,18.30
2012,04,23,14,17,18.20
2012,04,23,14,18,18.20
2012,04,23,14,20,18.10
2012,04,23,14,21,18.00
2012,04,23,14,22,17.90
2012,04,23,14,23,18.00
2012,04,23,14,24,18.10
2012,04,23,14,26,18.10
2012,04,23,14,27,18.10
2012,04,23,14,28,17.90
2012,04,23,14,29,17.90
2012,04,23,14,30,17.90
2012,04,23,14,32,18.00
2012,04,23,14,33,18.10
2012,04,23,14,34,18.10
2012,04,23,14,35,18.10
2012,04,23,14,37,18.10
2012,04,23,14,38,18.00
2012,04,23,14,39,18.00
2012,04,23,14,40,18.00
2012,04,23,14,42,18.00
2012,04,23,14,43,18.10
2012,04,23,14,44,18.10
2012,04,23,14,45,18.20
2012,04,23,14,47,18.30
2012,04,23,14,48,18.40
2012,04,23,14,49,18.50
2012,04,23,14,50,18.70
2012,04,23,14,52,18.80
2012,04,23,14,53,18.80
2012,04,23,14,54,18.90
2012,04,23,14,55,19.00
2012,04,23,14,57,19.00
2012,04,23,14,58,19.10
2012,04,23,14,59,18.90
2012,04,23,15,00,18.80
2012,04,23,15,01,18.80
2012,04,23,15,02,18.70
2012,04,23,15,03,18.70
2012,04,23,15,04,18.70
2012,04,23,15,06,18.80
2012,04,23,15,07,18.80
2012,04,23,15,08,18.80
2012,04,23,15,10,18.70
2012,04,23,15,11,18.60
2012,04,23,15,12,18.40
2012,04,23,15,13,18.30
2012,04,23,15,14,18.20
2012,04,23,15,16,18.10
2012,04,23,15,17,17.90
2012,04,23,15,18,17.80
2012,04,23,15,19,17.70
2012,04,23,15,21,17.70
2012,04,23,15,22,17.70
2012,04,23,15,23,17.70
2012,04,23,15,24,17.70
2012,04,23,15,26,17.70
2012,04,23,15,27,17.70
2012,04,23,15,28,17.70
2012,04,23,15,29,17.80
2012,04,23,15,30,17.80
2012,04,23,15,32,17.80
2012,04,23,15,33,17.80
2012,04,23,15,34,17.90
2012,04,23,15,35,17.90
2012,04,23,15,36,17.80
2012,04,23,15,38,17.80
2012,04,23,15,39,17.80
2012,04,23,15,40,17.80
2012,04,23,15,41,17.80
2012,04,23,15,42,17.80
2012,04,23,15,43,17.70
2012,04,23,15,44,17.70
2012,04,23,15,45,17.70
2012,04,23,15,46,17.60
2012,04,23,15,48,17.60
2012,04,23,15,49,17.70
2012,04,23,15,50,17.80
2012,04,23,15,51,17.80
2012,04,23,15,53,17.90
2012,04,23,15,54,18.00
2012,04,23,15,55,18.10
2012,04,23,15,56,18.10
2012,04,23,15,58,18.10
2012,04,23,15,59,18.00
2012,04,23,16,00,18.00
2012,04,23,16,01,18.00
2012,04,23,16,02,18.00
2012,04,23,16,04,18.00
2012,04,23,16,05,17.90
2012,04,23,16,06,17.90
2012,04,23,16,07,17.90
2012,04,23,16,09,17.90
2012,04,23,16,10,17.90
2012,04,23,16,11,17.80
2012,04,23,16,12,17.90
2012,04,23,16,14,17.90
2012,04,23,16,15,18.10
2012,04,23,16,16,18.10
2012,04,23,16,17,18.10
2012,04,23,16,19,18.10
2012,04,23,16,20,18.00
2012,04,23,16,21,18.00
2012,04,23,16,23,17.90
2012,04,23,16,24,18.00
2012,04,23,16,25,18.00
2012,04,23,16,27,18.00
2012,04,23,16,28,18.00
2012,04,23,16,29,18.00
2012,04,23,16,30,17.90
2012,04,23,16,32,17.90
2012,04,23,16,33,17.80
2012,04,23,16,34,17.80
2012,04,23,16,35,17.70
2012,04,23,16,36,17.70
2012,04,23,16,38,17.70
2012,04,23,16,39,17.70
2012,04,23,16,40,17.70
2012,04,23,16,41,17.70
2012,04,23,16,43,17.80
2012,04,23,16,44,17.80
2012,04,23,16,45,17.80
2012,04,23,16,46,17.80
2012,04,23,16,48,17.90
2012,04,23,16,49,18.10
2012,04,23,16,50,18.20
2012,04,23,16,51,18.30
2012,04,23,16,53,18.20
2012,04,23,16,54,18.20
2012,04,23,16,55,18.10
2012,04,23,16,56,18.10
2012,04,23,16,58,17.90
2012,04,23,16,59,17.90
2012,04,23,17,00,17.90
2012,04,23,17,01,17.80
2012,04,23,17,03,17.80
2012,04,23,17,04,17.70
2012,04,23,17,05,17.70
2012,04,23,17,07,17.60
2012,04,23,17,08,17.70
2012,04,23,17,09,17.70
2012,04,23,17,10,17.70
2012,04,23,17,11,17.70
2012,04,23,17,12,17.60
2012,04,23,17,14,17.40
2012,04,23,17,15,17.40
2012,04,23,17,16,17.30
2012,04,23,17,17,17.30
2012,04,23,17,18,17.30
2012,04,23,17,20,17.30
2012,04,23,17,21,17.30
2012,04,23,17,22,17.20
2012,04,23,17,23,17.20
2012,04,23,17,25,17.10
2012,04,23,17,26,17.10
2012,04,23,17,27,17.10
2012,04,23,17,28,17.10
2012,04,23,17,30,17.10
2012,04,23,17,31,17.20
2012,04,23,17,32,17.20
2012,04,23,17,33,17.20
2012,04,23,17,34,17.30
2012,04,23,17,35,17.30
2012,04,23,17,36,17.30
2012,04,23,17,37,17.30
2012,04,23,17,38,17.30
2012,04,23,17,40,17.30
2012,04,23,17,41,17.40
2012,04,23,17,42,17.40
2012,04,23,17,43,17.40
2012,04,23,17,45,17.40
2012,04,23,17,46,17.40
2012,04,23,17,47,17.40
2012,04,23,17,48,17.40
2012,04,23,17,49,17.40
2012,04,23,17,50,17.40
2012,04,23,17,51,17.40
2012,04,23,17,52,17.30
2012,04,23,17,53,17.30
2012,04,23,17,55,17.20
2012,04,23,17,56,17.10
2012,04,23,17,57,17.10
2012,04,23,17,58,17.00
2012,04,23,17,59,17.00
2012,04,23,18,00,17.00
2012,04,23,18,01,17.00
2012,04,23,18,02,17.00
2012,04,23,18,03,17.00
2012,04,23,18,04,17.00
2012,04,23,18,05,17.00
2012,04,23,18,06,17.00
2012,04,23,18,07,17.00
2012,04,23,18,08,17.00
2012,04,23,18,09,17.00
2012,04,23,18,10,17.00
2012,04,23,18,11,17.00
2012,04,23,18,12,17.10
2012,04,23,18,13,17.10
2012,04,23,18,14,17.10
2012,04,23,18,16,17.10
2012,04,23,18,17,17.10
2012,04,23,18,18,17.10
2012,04,23,18,19,17.00
2012,04,23,18,20,17.00
2012,04,23,18,21,17.00
2012,04,23,18,22,16.90
2012,04,23,18,23,16.90
2012,04,23,18,25,16.80
2012,04,23,18,26,16.70
2012,04,23,18,27,16.70
2012,04,23,18,28,16.70
2012,04,23,18,29,16.70
2012,04,23,18,31,16.70
2012,04,23,18,32,16.70
2012,04,23,18,33,16.70
2012,04,23,18,35,16.70
2012,04,23,18,36,16.60
2012,04,23,18,37,16.60
2012,04,23,18,38,16.60
2012,04,23,18,40,16.50
2012,04,23,18,41,16.40
2012,04,23,18,42,16.30
2012,04,23,18,43,16.30
2012,04,23,18,44,16.20
2012,04,23,18,46,16.20
2012,04,23,18,47,16.10
2012,04,23,18,48,16.10
2012,04,23,18,49,16.10
2012,04,23,18,50,16.10
2012,04,23,18,52,16.10
2012,04,23,18,53,16.10
2012,04,23,18,55,16.10
2012,04,23,18,56,16.00
2012,04,23,18,57,15.90
2012,04,23,18,58,15.90
2012,04,23,19,00,15.90
2012,04,23,19,01,15.80
2012,04,23,19,02,15.80
2012,04,23,19,03,15.80
2012,04,23,19,05,15.70
2012,04,23,19,06,15.70
2012,04,23,19,07,15.70
2012,04,23,19,08,15.70
2012,04,23,19,09,15.70
2012,04,23,19,11,15.60
2012,04,23,19,12,15.60
2012,04,23,19,13,15.60
2012,04,23,19,15,15.60
2012,04,23,19,16,15.50
2012,04,23,19,17,15.50
2012,04,23,19,19,15.50
2012,04,23,19,20,15.50
2012,04,23,19,21,15.40
2012,04,23,19,22,15.40
2012,04,23,19,23,15.40
2012,04,23,19,25,15.40
2012,04,23,19,26,15.30
2012,04,23,19,27,15.30
2012,04,23,19,28,15.20
2012,04,23,19,30,15.20
2012,04,23,19,31,15.20
2012,04,23,19,32,15.10
2012,04,23,19,33,15.10
2012,04,23,19,34,15.10
2012,04,23,19,35,15.00
2012,04,23,19,36,14.90
2012,04,23,19,37,14.90
2012,04,23,19,38,14.80
2012,04,23,19,39,14.80
2012,04,23,19,40,14.80
2012,04,23,19,41,14.80
2012,04,23,19,42,14.70
2012,04,23,19,43,14.70
2012,04,23,19,45,14.70
2012,04,23,19,46,14.70
2012,04,23,19,47,14.70
2012,04,23,19,48,14.70
2012,04,23,19,49,14.60
2012,04,23,19,50,14.60
2012,04,23,19,51,14.60
2012,04,23,19,52,14.70
2012,04,23,19,54,14.60
2012,04,23,19,55,14.60
2012,04,23,19,56,14.60
2012,04,23,19,58,14.60
2012,04,23,19,59,14.40
2012,04,23,20,00,14.40
2012,04,23,20,01,14.40
2012,04,23,20,03,14.40
2012,04,23,20,04,14.40
2012,04,23,20,05,14.40
2012,04,23,20,06,14.40
2012,04,23,20,07,14.40
2012,04,23,20,08,14.30
2012,04,23,20,09,14.30
2012,04,23,20,10,14.30
2012,04,23,20,11,14.30
2012,04,23,20,12,14.30
2012,04,23,20,13,14.20
2012,04,23,20,14,14.20
2012,04,23,20,15,14.20
2012,04,23,20,17,14.20
2012,04,23,20,18,14.20
2012,04,23,20,19,14.20
2012,04,23,20,20,14.20
2012,04,23,20,21,14.20
2012,04,23,20,22,14.20
2012,04,23,20,23,14.20
2012,04,23,20,24,14.20
2012,04,23,20,25,14.20
2012,04,23,20,26,14.30
2012,04,23,20,27,14.20
2012,04,23,20,28,14.20
2012,04,23,20,29,14.20
2012,04,23,20,30,14.20
2012,04,23,20,31,14.20
2012,04,23,20,32,14.20
2012,04,23,20,33,14.20
2012,04,23,20,34,14.20
2012,04,23,20,36,14.20
2012,04,23,20,37,14.20
2012,04,23,20,38,14.20
2012,04,23,20,39,14.20
2012,04,23,20,41,14.20
2012,04,23,20,42,14.20
2012,04,23,20,43,14.20
2012,04,23,20,44,14.20
2012,04,23,20,46,14.20
2012,04,23,20,47,14.20
2012,04,23,20,48,14.10
2012,04,23,20,49,14.10
2012,04,23,20,51,14.10
2012,04,23,20,52,14.10
2012,04,23,20,53,14.10
2012,04,23,20,54,14.10